Weather in Machukhy

Ukraine / Poltava Region     49°31′15″N   34°25′38″E
temp.,
°C
wind,
m/s
gust,
m/s
humid.,
%
clouds,
%
prec.,
mm/h
press.,
hPa
HPBL,
m
18 april, sun
sun1800:00+6w1189100 0.0 101927
03:00+6sw239096 0.0 101980
06:00+5sw2488100 0.0 1019133
09:00+8sw3473100 0.0 1018414
12:00+11wsw4655100 0.0 10181657
15:00+12sw4749100 0.1 10171713
18:00+11nw355992 0.0 1017229
21:00+9nne357869 0.0 1018175
19 april, mon
mon1900:00+6nne3393100 0.0 101859
03:00+5nne248599 0.0 1018181
06:00+4nne2491100 0.0 101873
09:00+8ne336995 0.0 1018469
12:00+12nne2251100 0.0 1017938
15:00+14nne2144100 0.0 10161599
18:00+14nne224495 0.0 10151307
21:00+11ne365288 0.0 1014149
20 april, tue
tue2000:00+10ne4967100 0.0 1013303
03:00+8ne497374 0.0 1011248
06:00+8ne51174100 0.0 1009316
09:00+9ne61279100 0.5 1007503
12:00+9ne81490100 5.4 1002844
15:00+9ne71394100 13.9 999930
18:00+9n2496100 3.5 996362
21:00+8nw71292100 5.6 997688
21 april, wed
wed2100:00+8wnw81387100 0.9 10001135
03:00+7w81391100 1.1 1004782
06:00+6w71190100 0.0 1008642
09:00+7wsw7876100 0.0 1011917
12:00+7wsw6770100 0.0 1014960
15:00+9wsw6859100 0.0 10151526
18:00+8wsw4764100 0.0 1017777
21:00+6ssw2271100 0.0 101912
22 april, thu
thu2200:00+7sse36746 0.0 1020152
03:00+5sse3682100 0.0 1020100
06:00+6s368389 0.0 1021149
09:00+10ssw4676100 0.0 1022422
12:00+14ssw555799 0.0 10221233
15:00+16ssw4449100 0.1 10221699
18:00+15s235284 0.0 10221347
21:00+12e116135 0.0 102310